LGSALGKR

Guest
Details From LGSA - Khania Souda
To LGKR - IOANNIS KAPODISTRIAS INTL
Flight Number -
Tags generated
Created
Modified
Stats Distance 317 nm / 588 km
Max Altitude 34,000 ft / 10,363 m
Waypoints 6
Social Downloads 0
Likes 0
Share VATSIM

Download

Looking for another format? Having issues loading an existing format? Contact us
Advertisement - Login to hide

Notes

Basic altitude profile: - Ascent Rate: 2500ft/min - Ascent Speed: 250kts - Cruise Altitude: 35000ft - Cruise Speed: 420kts - Descent Rate: 1500ft/min - Descent Speed: 250kts Options: - Use NATs: yes - Use PACOTS: yes - Use low airways: yes - Use high airways: yes

Route

LGSA SOKRI UJ65 TRL UL612 ARA A14 KRK LGKR

ID Type Via Altitude Latitude Longitude Leg Dist Tot Dist Heading (true) Name
O LGSA APT - 0 ft / 0 m 35.53159˚ 24.15118˚ - 0 nm - Khania Souda
SOKRI FIX - 18,500 ft / 5,639 m 36.25778˚ 23.47194˚ 54 nm 54 nm 323° / 323° -
TRL VOR UJ65 (AWY-HI) 34,000 ft / 10,363 m 37.40275˚ 22.33963˚ 87 nm 142 nm 322° / 321° TRIPOLIS VOR-DME
ARA VOR UL612 (AWY-HI) 24,500 ft / 7,468 m 38.10972˚ 21.42528˚ 60 nm 203 nm 315° / 314° ARAXOS VOR-DME
KRK VOR A14 (AWY-LO) 6,500 ft / 1,981 m 39.44389˚ 20.07278˚ 102 nm 305 nm 322° / 321° KERKIRA VOR-DME
O LGKR APT - 0 ft / 0 m 39.60178˚ 19.91191˚ 12 nm 317 nm 322° / 322° IOANNIS KAPODISTRIAS INTL

Altitude Profile

Advertisement - Login to hide

Weather


0- 5 10 15 20 25 30 35+ Temperature / ° C

Clouds and Precipitation
Forecast for 2018-05-21 06:00 UTC. Updated 3 hours ago

Ground ~20,000 ft ~40,000 ft Winds

LGSA

Details ICAO LGSA (CHQ)
Name Khania Souda
Region Greece
Timezone Europe/Athens (UTC+3.0)
Stats Elevation 490 ft / 149 m (AMSL)
Location 35.531592° 24.151184°
Runways 1
Magnetic Variation 4.323° E

METAR

LGSA 210750Z 10008KT 9999 SCT008 SCT014 23/19 Q1010

Decode

TAF

TAF LGSA 210500Z 2106/2206 10015KT 8000 FEW008 BKN012 BECMG 2110/2112 02010KT FEW018 SCT080

Decode

Departure Runways

ID Width Length Bearing (true) Bearing (mag) Surface Threshold Offset Overrun Length
11 148 ft / 45 m 10,967 ft / 3,343 m 111.40° 107.08° Asphalt 0 ft / 0 m 735 ft / 224 m
29 148 ft / 45 m 10,967 ft / 3,343 m 291.42° 287.10° Asphalt 0 ft / 0 m 900 ft / 274 m

LGKR

Details ICAO LGKR (CFU)
Name IOANNIS KAPODISTRIAS INTL
Region Greece
Timezone Europe/Athens (UTC+3.0)
Stats Elevation 6 ft / 2 m (AMSL)
Location 39.601779° 19.911908°
Runways 1
Magnetic Variation 4.141° E

METAR

LGKR 210750Z 00000KT 9999 FEW035 SCT080 25/17 Q1011 NOSIG

Decode

TAF

TAF LGKR 210500Z 2106/2206 VRB05KT 9999 FEW035 BKN080

Decode

Destination Runways

ID Width Length Bearing (true) Bearing (mag) Surface Threshold Offset Overrun Length
17 148 ft / 45 m 7,815 ft / 2,382 m 168.81° 164.67° Asphalt 1,348 ft / 411 m 0 ft / 0 m
35 148 ft / 45 m 7,815 ft / 2,382 m 348.81° 344.67° Asphalt 213 ft / 65 m 0 ft / 0 m

Popular Alternatives